Weather History for KSSC - May, 2013

Change the Weather History Date:

Friday, May 17, 2013

  Actual Average Record
Temperature  
Mean Temperature 76 °F -  
Max Temperature 88 °F - - ()
Min Temperature 64 °F - - ()
Cooling Degree Days 10    
Growing Degree Days 26 (Base 50)    
Moisture  
Dew Point 58 °F    
Average Humidity 56    
Maximum Humidity 84    
Minimum Humidity 29    
Precipitation  
Precipitation 0.00 in - - ()
Sea Level Pressure  
Sea Level Pressure 30.06 in    
Wind  
Wind Speed 6 mph (SSW)    
Max Wind Speed 10 mph    
Max Gust Speed 18 mph    
Visibility 10 miles    
Events      
T = Trace of Precipitation, MM = Missing Value Source: NWS Daily Summary

Daily Weather History Graph

Daily Weather History Graph

Search for Another Location

Airport or City:

Trip Planner

Search our weather history database for the weather conditions in past years. The results will help you decide how hot, cold, wet, or windy it might be!

Date:

Astronomy

May. 17, 2013 Rise Set
Actual Time 6:18 AM EDT 8:18 PM EDT
Civil Twilight 5:51 AM EDT 8:45 PM EDT
Nautical Twilight 5:17 AM EDT 9:19 PM EDT
Astronomical Twilight 4:41 AM EDT 9:55 PM EDT
Moon 12:42 PM EDT (5/17) 1:16 AM EDT (5/17)
Length of Visible Light 14h 54m
Length of Day
13h 59m
Waxing Crescent, 45% of the Moon is Illuminated
May 17
Waxing Crescent
May 18
First Quarter
May 25
Full
May 31
Last Quarter
Jun 8
New

Hourly Weather History & Observations

Time (EDT) Temp. Heat Index Dew Point Humidity Pressure Visibility Wind Dir Wind Speed Gust Speed Precip Events Conditions
12:58 AM 67.5 °F - 59.5 °F 76% 30.03 in 10.0 mi South 3.5 mph - N/A   Mostly Cloudy
1:58 AM 66.9 °F - 59.2 °F 76% 30.03 in 10.0 mi South 5.8 mph - N/A   Partly Cloudy
2:58 AM 67.3 °F - 59.9 °F 77% 30.02 in 10.0 mi South 6.9 mph - N/A   Partly Cloudy
3:58 AM 66.7 °F - 60.4 °F 80% 30.02 in 10.0 mi SSW 5.8 mph - N/A   Clear
4:58 AM 66.0 °F - 58.8 °F 78% 30.03 in 10.0 mi SSW 6.9 mph - N/A   Clear
5:58 AM 64.4 °F - 58.8 °F 82% 30.05 in 10.0 mi SSE 3.5 mph - N/A   Scattered Clouds
6:58 AM 64.4 °F - 59.4 °F 84% 30.08 in 10.0 mi South 3.5 mph - N/A   Scattered Clouds
7:58 AM 69.8 °F - 60.1 °F 71% 30.09 in 10.0 mi SSW 6.9 mph - N/A   Scattered Clouds
8:35 AM 69.8 °F - 60.8 °F 73% 30.10 in 10.0 mi SW 6.9 mph - N/A   Partly Cloudy
8:58 AM 72.9 °F - 59.7 °F 63% 30.10 in 10.0 mi WSW 6.9 mph - N/A   Clear
9:58 AM 77.0 °F - 58.1 °F 52% 30.10 in 10.0 mi West 4.6 mph - N/A   Clear
10:58 AM 81.0 °F 80.7 °F 55.2 °F 41% 30.10 in 10.0 mi WSW 6.9 mph - N/A   Clear
11:58 AM 84.0 °F 82.9 °F 54.9 °F 37% 30.10 in 10.0 mi West 9.2 mph - N/A   Clear
12:58 PM 86.0 °F 84.2 °F 53.8 °F 33% 30.08 in 10.0 mi SW 10.4 mph 18.4 mph N/A   Clear
1:58 PM 86.9 °F 84.9 °F 53.8 °F 32% 30.07 in 10.0 mi West 9.2 mph - N/A   Scattered Clouds
2:58 PM 86.5 °F 84.6 °F 53.2 °F 32% 30.06 in 10.0 mi West 8.1 mph - N/A   Partly Cloudy
3:58 PM 87.3 °F 85.5 °F 54.5 °F 33% 30.05 in 10.0 mi SW 9.2 mph - N/A   Clear
4:58 PM 87.3 °F - 50.9 °F 29% 30.04 in 10.0 mi Variable 4.6 mph - N/A   Clear
5:58 PM 85.8 °F 83.9 °F 53.1 °F 32% 30.04 in 10.0 mi Variable 4.6 mph - N/A   Clear
6:58 PM 84.2 °F 82.8 °F 54.1 °F 35% 30.04 in 10.0 mi West 4.6 mph - N/A   Clear
7:58 PM 82.6 °F 82.3 °F 58.1 °F 43% 30.04 in 10.0 mi SSE 3.5 mph - N/A   Clear
8:58 PM 77.0 °F - 60.4 °F 56% 30.05 in 10.0 mi South 4.6 mph - N/A   Clear
9:58 PM 76.1 °F - 61.3 °F 60% 30.07 in 10.0 mi SSE 5.8 mph - N/A   Clear
10:58 PM 72.5 °F - 61.7 °F 69% 30.09 in 10.0 mi SSW 4.6 mph - N/A   Scattered Clouds
11:58 PM 72.3 °F - 59.7 °F 64% 30.10 in 10.0 mi South 5.8 mph - N/A   Scattered Clouds